QPF
0.00 0.00 0.00 0.00 0.00 0.00 0.00 0.00 0.00 0.00 0.01 0.01 0.01 0.01 0.00 0.00 0.00 0.00 0.01 0.04 0.06 0.06 0.06 0.05 0.06 0.05 0.06 0.07 0.06 0.06 0.08 0.08 0.08 0.07 0.06 0.07 0.06 0.06 0.05 0.07 0.08 0.08 0.10
0.00 0.00 0.00 0.00 0.00 0.00 0.00 0.00 0.00 0.00 0.01 0.02 0.01 0.01 0.01 0.00 0.01 0.00 0.01 0.02 0.03 0.04 0.07 0.08 0.08 0.07 0.10 0.10 0.10 0.09 0.08 0.07 0.06 0.05 0.05 0.06 0.04 0.05 0.05 0.06 0.07 0.08 0.10
0.00 0.00 0.00 0.00 0.00 0.00 0.00 0.01 0.00 0.00 0.01 0.02 0.01 0.02 0.02 0.01 0.01 0.01 0.01 0.02 0.02 0.05 0.08 0.09 0.09 0.10 0.12 0.11 0.10 0.10 0.08 0.07 0.06 0.05 0.06 0.06 0.05 0.06 0.05 0.04 0.07 0.11 0.11
0.00 0.00 0.00 0.00 0.00 0.00 0.00 0.01 0.01 0.01 0.01 0.01 0.01 0.02 0.04 0.04 0.01 0.01 0.01 0.01 0.02 0.03 0.04 0.08 0.12 0.10 0.09 0.10 0.08 0.08 0.07 0.06 0.05 0.05 0.09 0.07 0.06 0.05 0.04 0.04 0.05 0.08 0.12
0.00 0.00 0.00 0.00 0.00 0.00 0.00 0.00 0.01 0.01 0.01 0.01 0.01 0.02 0.04 0.03 0.02 0.01 0.01 0.01 0.01 0.01 0.02 0.06 0.14 0.11 0.09 0.10 0.09 0.08 0.08 0.07 0.06 0.10 0.17 0.08 0.06 0.07 0.07 0.06 0.06 0.07 0.09
0.00 0.00 0.00 0.00 0.00 0.01 0.00 0.00 0.00 0.01 0.02 0.02 0.01 0.02 0.02 0.02 0.02 0.02 0.02 0.01 0.01 0.01 0.02 0.04 0.09 0.11 0.11 0.11 0.11 0.11 0.09 0.08 0.09 0.14 0.22 0.15 0.13 0.15 0.13 0.08 0.06 0.07 0.08
0.00 0.00 0.00 0.00 0.00 0.00 0.00 0.00 0.00 0.01 0.02 0.02 0.01 0.01 0.01 0.02 0.03 0.03 0.03 0.02 0.03 0.02 0.01 0.03 0.06 0.06 0.07 0.10 0.10 0.10 0.10 0.11 0.13 0.14 0.20 0.22 0.19 0.18 0.16 0.08 0.06 0.06 0.07
0.00 0.00 0.00 0.00 0.00 0.01 0.01 0.01 0.01 0.01 0.01 0.01 0.00 0.00 0.01 0.01 0.03 0.03 0.03 0.02 0.02 0.02 0.02 0.02 0.02 0.03 0.04 0.06 0.07 0.09 0.10 0.13 0.19 0.17 0.16 0.19 0.19 0.18 0.13 0.08 0.07 0.07 0.09
0.01 0.00 0.00 0.00 0.00 0.00 0.00 0.01 0.00 0.01 0.01 0.01 0.01 0.01 0.02 0.01 0.02 0.04 0.03 0.03 0.03 0.02 0.02 0.02 0.02 0.02 0.01 0.02 0.03 0.08 0.12 0.13 0.17 0.18 0.14 0.13 0.15 0.13 0.10 0.08 0.06 0.07 0.09
0.01 0.00 0.00 0.00 0.00 0.00 0.00 0.01 0.01 0.00 0.00 0.01 0.00 0.02 0.03 0.02 0.02 0.03 0.02 0.03 0.04 0.03 0.03 0.03 0.01 0.01 0.00 0.01 0.02 0.05 0.09 0.10 0.11 0.12 0.11 0.11 0.11 0.11 0.09 0.07 0.08 0.08 0.08
0.00 0.00 0.00 0.00 0.00 0.00 0.00 0.01 0.01 0.01 0.01 0.01 0.01 0.01 0.02 0.01 0.02 0.03 0.02 0.02 0.02 0.02 0.02 0.02 0.01 0.00 0.00 0.00 0.01 0.02 0.05 0.06 0.07 0.07 0.07 0.07 0.07 0.07 0.07 0.08 0.13 0.17 0.17
0.00 0.00 0.00 0.00 0.00 0.00 0.00 0.00 0.00 0.00 0.00 0.00 0.00 0.01 0.01 0.00 0.01 0.02 0.01 0.01 0.01 0.01 0.01 0.01 0.01 0.00 0.00 0.00 0.00 0.01 0.03 0.03 0.04 0.04 0.04 0.04 0.05 0.05 0.05 0.05 0.09 0.16 0.26
0.00 0.00 0.00 0.00 0.00 0.00 0.00 0.00 0.00 0.00 0.00 0.00 0.00 0.00 0.00 0.00 0.00 0.01 0.01 0.00 0.00 0.00 0.00 0.00 0.00 0.00 0.00 0.00 0.01 0.01 0.01 0.02 0.03 0.03 0.03 0.02 0.03 0.03 0.04 0.05 0.05 0.08 0.15
0.00 0.00 0.00 0.00 0.00 0.00 0.00 0.00 0.00 0.00 0.01 0.01 0.01 0.01 0.00 0.00 0.00 0.00 0.00 0.00 0.00 0.00 0.00 0.00 0.00 0.00 0.00 0.00 0.01 0.01 0.01 0.01 0.01 0.02 0.02 0.01 0.02 0.02 0.02 0.03 0.04 0.06 0.09
0.00 0.00 0.00 0.00 0.00 0.00 0.00 0.00 0.00 0.00 0.01 0.01 0.01 0.00 0.00 0.00 0.00 0.00 0.00 0.00 0.00 0.00 0.00 0.00 0.00 0.00 0.00 0.00 0.00 0.01 0.01 0.01 0.00 0.00 0.01 0.01 0.01 0.01 0.01 0.01 0.02 0.03 0.04
0.00 0.00 0.00 0.00 0.00 0.00 0.00 0.00 0.01 0.01 0.02 0.02 0.01 0.01 0.00 0.00 0.00 0.00 0.00 0.00 0.00 0.00 0.00 0.00 0.00 0.00 0.00 0.00 0.00 0.00 0.00 0.01 0.00 0.00 0.00 0.00 0.00 0.00 0.00 0.00 0.01 0.01 0.02
0.00 0.00 0.00 0.00 0.00 0.00 0.00 0.00 0.00 0.01 0.02 0.02 0.01 0.01 0.00 0.00 0.00 0.00 0.00 0.00 0.00 0.00 0.00 0.00 0.00 0.00 0.00 0.00 0.00 0.00 0.00 0.00 0.00 0.00 0.00 0.00 0.00 0.00 0.00 0.00 0.00 0.00 0.01
0.00 0.00 0.00 0.00 0.00 0.00 0.00 0.01 0.01 0.01 0.01 0.02 0.01 0.00 0.00 0.00 0.00 0.00 0.00 0.00 0.00 0.00 0.00 0.00 0.00 0.00 0.00 0.00 0.00 0.00 0.00 0.00 0.00 0.00 0.00 0.00 0.00 0.00 0.00 0.00 0.00 0.00 0.00
0.00 0.00 0.00 0.00 0.00 0.00 0.00 0.01 0.01 0.00 0.01 0.01 0.01 0.00 0.00 0.00 0.00 0.00 0.00 0.00 0.00 0.00 0.00 0.00 0.00 0.00 0.00 0.00 0.00 0.00 0.00 0.00 0.00 0.00 0.00 0.00 0.00 0.00 0.00 0.00 0.00 0.00 0.00
0.00 0.00 0.00 0.00 0.00 0.00 0.00 0.00 0.00 0.00 0.01 0.01 0.01 0.00 0.00 0.00 0.00 0.00 0.00 0.00 0.00 0.00 0.00 0.01 0.00 0.00 0.00 0.00 0.00 0.00 0.00 0.00 0.00 0.00 0.00 0.00 0.00 0.00 0.00 0.01 0.00 0.01 0.01
0.00 0.00 0.00 0.00 0.00 0.00 0.00 0.00 0.00 0.00 0.00 0.01 0.01 0.01 0.00 0.00 0.00 0.00 0.00 0.00 0.00 0.00 0.01 0.01 0.00 0.00 0.00 0.00 0.00 0.00 0.00 0.00 0.00 0.00 0.00 0.00 0.00 0.00 0.01 0.01 0.01 0.01 0.01
0.00 0.00 0.00 0.00 0.00 0.00 0.00 0.00 0.00 0.00 0.00 0.00 0.00 0.00 0.00 0.00 0.00 0.00 0.00 0.00 0.00 0.00 0.01 0.01 0.00 0.00 0.00 0.00 0.00 0.00 0.00 0.00 0.00 0.00 0.00 0.00 0.00 0.00 0.01 0.01 0.01 0.01 0.01
0.00 0.00 0.00 0.00 0.00 0.00 0.00 0.00 0.00 0.00 0.00 0.00 0.00 0.00 0.00 0.00 0.00 0.00 0.00 0.00 0.00 0.01 0.02 0.02 0.01 0.00 0.00 0.00 0.00 0.00 0.00 0.00 0.00 0.00 0.01 0.01 0.00 0.01 0.01 0.01 0.02 0.02 0.02
0.00 0.00 0.00 0.00 0.00 0.00 0.00 0.00 0.00 0.00 0.00 0.00 0.00 0.00 0.00 0.00 0.00 0.00 0.00 0.00 0.00 0.00 0.01 0.03 0.02 0.01 0.01 0.01 0.01 0.00 0.00 0.00 0.01 0.01 0.01 0.01 0.01 0.01 0.02 0.02 0.03 0.02 0.02
0.00 0.00 0.00 0.00 0.00 0.00 0.00 0.00 0.00 0.00 0.00 0.00 0.00 0.00 0.00 0.00 0.00 0.00 0.00 0.00 0.00 0.00 0.01 0.02 0.03 0.03 0.02 0.01 0.01 0.01 0.01 0.01 0.01 0.01 0.01 0.01 0.01 0.01 0.02 0.02 0.03 0.03 0.03
0.00 0.00 0.00 0.00 0.00 0.00 0.00 0.00 0.00 0.00 0.00 0.00 0.00 0.00 0.00 0.00 0.00 0.00 0.00 0.00 0.00 0.00 0.00 0.01 0.01 0.03 0.04 0.03 0.03 0.01 0.00 0.00 0.00 0.01 0.01 0.01 0.01 0.01 0.02 0.03 0.03 0.03 0.02
MSLP
1016.97 1016.92 1016.82 1016.70 1016.57 1016.45 1016.38 1016.35 1016.37 1016.43 1016.51 1016.60 1016.69 1016.77 1016.83 1016.89 1016.96 1017.04 1017.15 1017.28 1017.43 1017.57 1017.70 1017.80 1017.83 1017.81 1017.71 1017.56 1017.38 1017.18 1016.99 1016.82 1016.67 1016.53 1016.34 1016.08 1015.67 1015.09 1014.31 1013.36 1012.30 1011.23 1010.27
1017.12 1017.03 1016.91 1016.77 1016.64 1016.54 1016.49 1016.49 1016.55 1016.66 1016.80 1016.94 1017.07 1017.17 1017.25 1017.31 1017.35 1017.39 1017.45 1017.53 1017.63 1017.75 1017.87 1017.97 1018.02 1018.02 1017.96 1017.84 1017.67 1017.48 1017.30 1017.13 1016.99 1016.86 1016.71 1016.50 1016.18 1015.70 1015.06 1014.26 1013.36 1012.44 1011.62
1017.28 1017.16 1017.03 1016.89 1016.78 1016.71 1016.70 1016.75 1016.86 1017.03 1017.22 1017.42 1017.60 1017.74 1017.83 1017.87 1017.88 1017.87 1017.86 1017.86 1017.89 1017.95 1018.03 1018.10 1018.16 1018.17 1018.14 1018.04 1017.90 1017.73 1017.56 1017.40 1017.26 1017.14 1017.02 1016.87 1016.64 1016.30 1015.83 1015.22 1014.53 1013.81 1013.17
1017.45 1017.31 1017.18 1017.06 1016.98 1016.95 1016.98 1017.08 1017.25 1017.47 1017.72 1017.98 1018.20 1018.37 1018.48 1018.52 1018.49 1018.43 1018.34 1018.26 1018.21 1018.19 1018.20 1018.23 1018.27 1018.29 1018.27 1018.20 1018.09 1017.94 1017.78 1017.62 1017.48 1017.37 1017.28 1017.18 1017.03 1016.82 1016.51 1016.11 1015.64 1015.14 1014.69
1017.64 1017.49 1017.36 1017.27 1017.22 1017.23 1017.30 1017.45 1017.66 1017.93 1018.22 1018.51 1018.78 1018.99 1019.12 1019.16 1019.13 1019.03 1018.88 1018.73 1018.59 1018.49 1018.43 1018.41 1018.41 1018.42 1018.41 1018.36 1018.27 1018.14 1017.99 1017.83 1017.69 1017.58 1017.50 1017.43 1017.35 1017.24 1017.07 1016.85 1016.57 1016.27 1015.99
1017.84 1017.68 1017.57 1017.50 1017.48 1017.52 1017.63 1017.80 1018.03 1018.31 1018.63 1018.95 1019.25 1019.50 1019.67 1019.74 1019.72 1019.62 1019.45 1019.25 1019.05 1018.88 1018.76 1018.68 1018.64 1018.62 1018.60 1018.56 1018.48 1018.37 1018.23 1018.08 1017.93 1017.81 1017.72 1017.66 1017.61 1017.56 1017.49 1017.39 1017.26 1017.11 1016.97
1018.05 1017.90 1017.80 1017.75 1017.75 1017.80 1017.92 1018.09 1018.31 1018.59 1018.91 1019.25 1019.57 1019.86 1020.08 1020.21 1020.24 1020.17 1020.01 1019.81 1019.58 1019.37 1019.19 1019.06 1018.98 1018.93 1018.89 1018.85 1018.78 1018.67 1018.54 1018.39 1018.23 1018.09 1017.98 1017.90 1017.85 1017.82 1017.79 1017.75 1017.71 1017.65 1017.59
1018.29 1018.14 1018.04 1018.01 1018.02 1018.07 1018.17 1018.32 1018.52 1018.76 1019.06 1019.39 1019.73 1020.06 1020.33 1020.53 1020.64 1020.64 1020.54 1020.37 1020.16 1019.93 1019.73 1019.56 1019.43 1019.34 1019.28 1019.23 1019.15 1019.05 1018.93 1018.77 1018.61 1018.45 1018.31 1018.20 1018.12 1018.07 1018.03 1018.01 1017.98 1017.96 1017.94
1018.56 1018.41 1018.32 1018.28 1018.29 1018.33 1018.40 1018.51 1018.65 1018.85 1019.11 1019.41 1019.75 1020.11 1020.44 1020.72 1020.92 1021.01 1021.00 1020.90 1020.73 1020.53 1020.32 1020.12 1019.97 1019.85 1019.75 1019.68 1019.59 1019.49 1019.37 1019.22 1019.05 1018.87 1018.71 1018.56 1018.44 1018.35 1018.28 1018.23 1018.18 1018.15 1018.13
1018.86 1018.71 1018.63 1018.59 1018.58 1018.60 1018.63 1018.69 1018.77 1018.91 1019.11 1019.37 1019.70 1020.07 1020.45 1020.80 1021.09 1021.28 1021.37 1021.35 1021.25 1021.09 1020.89 1020.70 1020.52 1020.37 1020.25 1020.14 1020.05 1019.94 1019.81 1019.67 1019.50 1019.32 1019.14 1018.97 1018.82 1018.69 1018.57 1018.48 1018.40 1018.34 1018.29
1019.19 1019.05 1018.96 1018.92 1018.91 1018.90 1018.90 1018.90 1018.93 1019.00 1019.14 1019.36 1019.65 1020.01 1020.41 1020.81 1021.17 1021.44 1021.62 1021.70 1021.67 1021.56 1021.40 1021.21 1021.02 1020.85 1020.70 1020.57 1020.46 1020.34 1020.22 1020.07 1019.91 1019.74 1019.57 1019.39 1019.22 1019.07 1018.92 1018.80 1018.68 1018.59 1018.51
1019.53 1019.40 1019.32 1019.28 1019.26 1019.24 1019.21 1019.18 1019.16 1019.18 1019.26 1019.42 1019.67 1020.00 1020.39 1020.80 1021.19 1021.53 1021.77 1021.92 1021.96 1021.90 1021.78 1021.61 1021.43 1021.24 1021.08 1020.93 1020.79 1020.66 1020.53 1020.40 1020.25 1020.10 1019.94 1019.77 1019.61 1019.45 1019.31 1019.16 1019.03 1018.92 1018.82
1019.87 1019.75 1019.69 1019.65 1019.64 1019.62 1019.59 1019.54 1019.49 1019.47 1019.50 1019.60 1019.80 1020.08 1020.43 1020.82 1021.21 1021.56 1021.85 1022.04 1022.13 1022.12 1022.04 1021.90 1021.72 1021.54 1021.36 1021.19 1021.04 1020.89 1020.76 1020.62 1020.49 1020.35 1020.22 1020.08 1019.94 1019.81 1019.67 1019.54 1019.41 1019.30 1019.19
1020.18 1020.09 1020.04 1020.03 1020.03 1020.03 1020.01 1019.97 1019.92 1019.88 1019.87 1019.93 1020.06 1020.28 1020.57 1020.90 1021.26 1021.60 1021.88 1022.09 1022.21 1022.25 1022.20 1022.09 1021.94 1021.76 1021.58 1021.40 1021.22 1021.06 1020.91 1020.77 1020.64 1020.52 1020.40 1020.29 1020.18 1020.08 1019.97 1019.87 1019.76 1019.66 1019.56
1020.45 1020.39 1020.38 1020.39 1020.43 1020.46 1020.47 1020.46 1020.43 1020.39 1020.36 1020.38 1020.46 1020.61 1020.82 1021.09 1021.38 1021.67 1021.93 1022.14 1022.28 1022.34 1022.32 1022.25 1022.12 1021.96 1021.78 1021.59 1021.40 1021.22 1021.04 1020.89 1020.74 1020.62 1020.51 1020.42 1020.33 1020.26 1020.18 1020.10 1020.02 1019.93 1019.84
1020.68 1020.66 1020.68 1020.73 1020.81 1020.88 1020.94 1020.97 1020.97 1020.94 1020.92 1020.91 1020.95 1021.03 1021.18 1021.37 1021.59 1021.82 1022.04 1022.23 1022.37 1022.45 1022.47 1022.42 1022.33 1022.19 1022.02 1021.83 1021.62 1021.41 1021.21 1021.02 1020.85 1020.71 1020.59 1020.49 1020.41 1020.34 1020.28 1020.22 1020.16 1020.08 1020.00
1020.87 1020.89 1020.94 1021.03 1021.15 1021.27 1021.38 1021.45 1021.49 1021.50 1021.49 1021.47 1021.48 1021.52 1021.60 1021.72 1021.88 1022.05 1022.23 1022.40 1022.53 1022.62 1022.67 1022.66 1022.59 1022.48 1022.33 1022.14 1021.92 1021.69 1021.45 1021.23 1021.02 1020.83 1020.68 1020.55 1020.45 1020.38 1020.31 1020.24 1020.17 1020.10 1020.01
1021.03 1021.08 1021.17 1021.30 1021.45 1021.61 1021.76 1021.88 1021.96 1021.99 1022.00 1021.99 1021.99 1022.00 1022.04 1022.11 1022.21 1022.34 1022.49 1022.63 1022.76 1022.86 1022.93 1022.95 1022.92 1022.84 1022.70 1022.52 1022.30 1022.05 1021.78 1021.51 1021.26 1021.02 1020.82 1020.65 1020.51 1020.39 1020.29 1020.20 1020.11 1020.02 1019.91
1021.15 1021.24 1021.37 1021.52 1021.71 1021.89 1022.07 1022.22 1022.32 1022.39 1022.42 1022.42 1022.41 1022.41 1022.43 1022.47 1022.55 1022.65 1022.77 1022.90 1023.03 1023.14 1023.23 1023.28 1023.27 1023.22 1023.10 1022.93 1022.72 1022.45 1022.17 1021.87 1021.57 1021.29 1021.03 1020.81 1020.61 1020.44 1020.29 1020.16 1020.03 1019.90 1019.76
1021.26 1021.38 1021.53 1021.72 1021.91 1022.12 1022.30 1022.46 1022.58 1022.66 1022.70 1022.72 1022.72 1022.72 1022.73 1022.77 1022.84 1022.93 1023.04 1023.16 1023.29 1023.41 1023.51 1023.58 1023.60 1023.57 1023.48 1023.32 1023.11 1022.86 1022.56 1022.24 1021.92 1021.60 1021.30 1021.02 1020.77 1020.54 1020.34 1020.15 1019.97 1019.79 1019.63
1021.35 1021.50 1021.68 1021.88 1022.09 1022.29 1022.47 1022.63 1022.74 1022.82 1022.86 1022.89 1022.90 1022.91 1022.94 1022.98 1023.05 1023.14 1023.26 1023.38 1023.51 1023.63 1023.74 1023.82 1023.85 1023.83 1023.76 1023.63 1023.44 1023.19 1022.91 1022.59 1022.25 1021.92 1021.59 1021.27 1020.98 1020.70 1020.44 1020.20 1019.97 1019.76 1019.55
1021.43 1021.62 1021.82 1022.04 1022.24 1022.43 1022.60 1022.73 1022.83 1022.89 1022.93 1022.96 1022.98 1023.01 1023.05 1023.11 1023.19 1023.29 1023.41 1023.53 1023.66 1023.77 1023.87 1023.95 1023.99 1023.98 1023.92 1023.81 1023.64 1023.42 1023.16 1022.86 1022.53 1022.20 1021.86 1021.53 1021.21 1020.90 1020.60 1020.32 1020.05 1019.80 1019.56
1021.51 1021.74 1021.97 1022.20 1022.40 1022.58 1022.72 1022.82 1022.89 1022.94 1022.97 1022.99 1023.02 1023.06 1023.12 1023.20 1023.29 1023.40 1023.51 1023.63 1023.74 1023.84 1023.92 1023.98 1024.01 1024.00 1023.95 1023.86 1023.71 1023.52 1023.29 1023.02 1022.73 1022.42 1022.09 1021.76 1021.44 1021.12 1020.80 1020.49 1020.20 1019.92 1019.66
1021.62 1021.88 1022.14 1022.38 1022.58 1022.74 1022.86 1022.94 1022.98 1023.00 1023.02 1023.04 1023.07 1023.12 1023.20 1023.29 1023.40 1023.50 1023.61 1023.71 1023.80 1023.87 1023.92 1023.96 1023.96 1023.94 1023.89 1023.81 1023.69 1023.53 1023.33 1023.10 1022.85 1022.57 1022.27 1021.96 1021.65 1021.33 1021.01 1020.70 1020.39 1020.09 1019.81
1021.75 1022.05 1022.34 1022.59 1022.79 1022.94 1023.04 1023.10 1023.12 1023.13 1023.13 1023.15 1023.20 1023.26 1023.35 1023.45 1023.56 1023.66 1023.75 1023.83 1023.88 1023.92 1023.93 1023.92 1023.90 1023.86 1023.81 1023.72 1023.62 1023.49 1023.32 1023.13 1022.92 1022.67 1022.41 1022.12 1021.83 1021.53 1021.22 1020.91 1020.60 1020.30 1020.01
1021.91 1022.25 1022.55 1022.81 1023.02 1023.17 1023.26 1023.30 1023.32 1023.33 1023.34 1023.37 1023.42 1023.50 1023.60 1023.71 1023.82 1023.91 1023.98 1024.02 1024.04 1024.03 1024.00 1023.96 1023.90 1023.84 1023.77 1023.69 1023.59 1023.48 1023.34 1023.18 1022.99 1022.77 1022.54 1022.28 1022.01 1021.72 1021.42 1021.12 1020.81 1020.51 1020.21
Thickness
5716 5713 5711 5710 5708 5707 5706 5706 5705 5705 5706 5706 5706 5707 5707 5708 5709 5711 5713 5716 5719 5722 5725 5727 5730 5732 5734 5737 5739 5741 5743 5745 5748 5750 5752 5755 5757 5760 5763 5766 5767 5768 5769
5714 5712 5710 5708 5707 5705 5704 5703 5703 5703 5702 5703 5703 5703 5704 5705 5707 5708 5711 5713 5716 5719 5721 5724 5727 5729 5731 5734 5736 5738 5740 5743 5745 5747 5750 5752 5755 5758 5761 5763 5764 5766 5767
5714 5711 5709 5707 5705 5704 5703 5702 5701 5701 5700 5699 5699 5700 5701 5702 5704 5705 5708 5710 5713 5715 5718 5721 5723 5726 5728 5731 5733 5735 5738 5740 5743 5745 5747 5750 5752 5755 5758 5760 5762 5763 5765
5713 5711 5708 5706 5705 5704 5702 5701 5699 5698 5696 5695 5695 5696 5697 5699 5700 5702 5704 5707 5709 5711 5714 5717 5719 5722 5725 5727 5730 5733 5735 5737 5740 5743 5745 5747 5750 5752 5755 5757 5758 5760 5762
5713 5711 5708 5706 5704 5703 5701 5700 5696 5696 5693 5693 5692 5692 5694 5695 5697 5699 5701 5703 5705 5707 5710 5712 5715 5718 5720 5723 5726 5729 5732 5735 5738 5740 5743 5746 5748 5750 5752 5753 5755 5756 5758
5712 5710 5708 5706 5704 5702 5699 5697 5695 5694 5692 5692 5692 5690 5691 5693 5694 5696 5698 5700 5702 5704 5706 5709 5711 5713 5716 5719 5722 5725 5728 5732 5735 5739 5742 5744 5746 5747 5748 5749 5751 5752 5754
5711 5710 5707 5705 5704 5701 5699 5697 5695 5693 5690 5691 5690 5687 5688 5690 5692 5693 5695 5697 5699 5701 5703 5705 5707 5709 5712 5714 5717 5720 5724 5728 5732 5736 5739 5741 5743 5743 5744 5744 5746 5748 5749
5711 5709 5707 5705 5703 5701 5699 5698 5696 5692 5689 5689 5688 5684 5681 5684 5687 5690 5692 5694 5695 5698 5700 5702 5703 5706 5708 5710 5712 5716 5719 5723 5727 5731 5733 5736 5737 5738 5739 5740 5742 5743 5744
5710 5708 5707 5705 5703 5701 5699 5698 5697 5695 5690 5689 5689 5687 5681 5678 5681 5685 5687 5690 5692 5694 5696 5698 5700 5702 5704 5706 5709 5711 5715 5718 5721 5724 5727 5729 5731 5733 5734 5735 5737 5738 5740
5709 5708 5706 5705 5703 5701 5699 5698 5697 5696 5694 5690 5689 5688 5687 5686 5682 5679 5683 5686 5689 5690 5692 5694 5696 5698 5700 5702 5705 5708 5711 5713 5716 5719 5721 5724 5725 5727 5729 5730 5732 5733 5735
5708 5707 5706 5705 5703 5701 5700 5699 5698 5697 5695 5692 5690 5689 5688 5686 5685 5682 5679 5681 5684 5687 5688 5690 5692 5694 5696 5699 5701 5703 5706 5709 5712 5714 5716 5718 5720 5722 5724 5725 5727 5728 5730
5707 5706 5706 5704 5703 5701 5700 5699 5698 5697 5696 5694 5692 5691 5689 5687 5684 5683 5679 5678 5679 5682 5685 5687 5689 5691 5693 5694 5696 5699 5701 5704 5707 5709 5711 5713 5715 5717 5718 5720 5722 5724 5725
5705 5705 5705 5704 5703 5701 5700 5699 5698 5697 5696 5694 5693 5691 5690 5689 5688 5685 5681 5678 5678 5679 5682 5684 5685 5687 5689 5691 5692 5694 5697 5699 5701 5703 5705 5707 5709 5711 5712 5714 5716 5718 5719
5705 5705 5704 5703 5702 5701 5700 5699 5698 5696 5695 5694 5693 5692 5690 5689 5689 5687 5684 5680 5677 5676 5678 5679 5682 5683 5685 5687 5688 5690 5691 5693 5696 5698 5700 5702 5704 5705 5707 5709 5710 5711 5713
5706 5705 5704 5703 5701 5701 5699 5698 5697 5695 5694 5692 5691 5690 5689 5688 5688 5687 5686 5683 5679 5673 5672 5674 5677 5679 5681 5683 5684 5685 5686 5687 5690 5692 5694 5696 5698 5700 5701 5702 5704 5705 5706
5706 5705 5703 5702 5701 5699 5698 5697 5695 5694 5693 5691 5690 5689 5688 5687 5686 5686 5684 5682 5681 5676 5670 5670 5672 5674 5676 5678 5679 5680 5681 5682 5684 5686 5688 5689 5692 5693 5695 5696 5697 5698 5699
5706 5704 5703 5701 5700 5698 5697 5695 5694 5692 5691 5689 5689 5687 5685 5685 5684 5683 5682 5680 5678 5676 5670 5668 5669 5670 5672 5673 5674 5675 5676 5677 5678 5679 5681 5683 5685 5687 5688 5689 5690 5691 5692
5706 5704 5702 5700 5699 5697 5695 5694 5692 5690 5689 5687 5686 5685 5684 5684 5681 5680 5679 5677 5675 5674 5670 5666 5665 5666 5667 5668 5669 5670 5671 5672 5672 5673 5675 5677 5678 5680 5681 5682 5683 5684 5685
5704 5703 5701 5699 5697 5696 5694 5692 5691 5689 5687 5685 5684 5683 5682 5681 5679 5677 5676 5675 5673 5672 5669 5665 5661 5661 5662 5663 5664 5665 5666 5666 5667 5668 5669 5670 5672 5673 5674 5674 5675 5676 5677
5703 5701 5700 5698 5696 5694 5692 5691 5689 5687 5685 5684 5683 5681 5680 5679 5677 5676 5674 5672 5670 5667 5665 5661 5658 5657 5657 5657 5657 5657 5658 5659 5660 5662 5663 5664 5665 5666 5666 5667 5668 5668 5668
5702 5700 5698 5696 5695 5693 5691 5689 5687 5685 5683 5681 5680 5679 5678 5678 5676 5675 5672 5669 5667 5663 5660 5657 5654 5653 5652 5651 5650 5650 5650 5651 5653 5654 5655 5657 5658 5658 5659 5659 5659 5659 5659
5699 5697 5696 5694 5693 5692 5691 5689 5686 5683 5680 5678 5676 5675 5675 5674 5673 5672 5670 5668 5665 5661 5657 5654 5651 5649 5648 5647 5646 5646 5644 5645 5646 5648 5647 5649 5650 5650 5650 5650 5650 5650 5649
5696 5695 5693 5692 5690 5690 5689 5687 5684 5681 5677 5675 5673 5672 5672 5670 5668 5667 5665 5663 5661 5659 5657 5652 5648 5646 5645 5643 5642 5641 5639 5638 5638 5639 5639 5640 5641 5641 5641 5640 5640 5639 5638
5694 5692 5690 5689 5688 5687 5686 5684 5681 5678 5674 5672 5670 5668 5667 5665 5664 5662 5660 5657 5655 5653 5651 5649 5647 5644 5643 5641 5639 5637 5635 5633 5632 5632 5631 5630 5631 5630 5631 5629 5628 5627 5625
5691 5690 5688 5686 5684 5683 5683 5680 5678 5673 5670 5667 5666 5664 5663 5661 5660 5658 5655 5652 5649 5647 5646 5644 5642 5640 5639 5637 5634 5631 5628 5626 5624 5623 5621 5619 5620 5619 5619 5618 5616 5613 5611
5690 5688 5685 5683 5682 5680 5679 5677 5674 5670 5665 5663 5661 5660 5659 5657 5656 5653 5649 5646 5643 5641 5640 5638 5636 5634 5632 5630 5627 5624 5621 5616 5613 5611 5611 5608 5606 5605 5607 5607 5603 5600 5598